Location: Newark
(22.3060°N, 114.2134°E)
Time: 19:39:46
(UTC+00:00)

Explorer 11/Cluster Stage 4 - Pass Details

Date: 03 August 2021
Orbit: 467 x 1256 km, 28.8° (Epoch: 27 September)

Event Time Altitude Azimuth Distance (km) Brightness Sun altitude
Rises 08:09:47 0° 271° (W) 3,912 11.1 38.2°
Reaches altitude 10° 08:14:05 10° 250° (WSW) 2,790 10.4 37.2°
Maximum altitude 08:17:39 15° 218° (SW) 2,295 9.5 36.4°
Drops below altitude 10° 08:20:55 10° 185° (S) 2,475 9.2 35.7°
Sets 08:24:23 0° 161° (SSE) 3,227 9.5 34.9°
